| time (UTC) | temp F | wind direction | speed knots | gust knots | rain 1hr in | rain 24hr in | rain mn in | humidity % | barometer mb |
| 20260504222120 | 80 | 250 | 17.4 | 24.3 | 0.00 | 0.00 | 0.00 | 49 | 1000.7 |
| 20260504221920 | 80 | 259 | 17.4 | 25.2 | 0.00 | 0.00 | 0.00 | 49 | 1000.7 |
| 20260504221723 | 80 | 251 | 17.4 | 26.1 | 0.00 | 0.00 | 0.00 | 49 | 1000.7 |
| 20260504221533 | 80 | 238 | 17.4 | 26.1 | 0.00 | 0.00 | 0.00 | 49 | 1000.8 |
| 20260504221200 | 80 | 246 | 18.2 | 26.1 | 0.00 | 0.00 | 0.00 | 48 | 1000.7 |
| 20260504220959 | 80 | 252 | 15.6 | 26.1 | 0.00 | 0.00 | 0.00 | 48 | 1000.8 |
| 20260504220803 | 81 | 251 | 15.6 | 23.5 | 0.00 | 0.00 | 0.00 | 47 | 1000.8 |
| 20260504220603 | 81 | 246 | 15.6 | 23.5 | 0.00 | 0.00 | 0.00 | 47 | 1000.8 |
| 20260504220403 | 81 | 250 | 18.2 | 24.3 | 0.00 | 0.00 | 0.00 | 47 | 1000.7 |
| 20260504220145 | 81 | 241 | 19.1 | 26.9 | 0.00 | 0.00 | 0.00 | 46 | 1000.8 |
| 20260504215945 | 81 | 259 | 19.1 | 26.9 | 0.00 | 0.00 | 0.00 | 47 | 1000.7 |
| 20260504215750 | 81 | 250 | 20.0 | 26.9 | 0.00 | 0.00 | 0.00 | 47 | 1000.6 |
| 20260504215550 | 81 | 263 | 20.0 | 26.9 | 0.00 | 0.00 | 0.00 | 47 | 1000.6 |
| 20260504215350 | 82 | 252 | 20.0 | 26.9 | 0.00 | 0.00 | 0.00 | 47 | 1000.6 |
| 20260504215130 | 82 | 263 | 20.0 | 26.1 | 0.00 | 0.00 | 0.00 | 47 | 1000.7 |
| 20260504214931 | 82 | 240 | 19.1 | 24.3 | 0.00 | 0.00 | 0.00 | 48 | 1000.7 |
| 20260504214729 | 82 | 244 | 18.2 | 24.3 | 0.00 | 0.00 | 0.00 | 47 | 1000.7 |
| 20260504214533 | 82 | 261 | 18.2 | 25.2 | 0.00 | 0.00 | 0.00 | 47 | 1000.6 |
| 20260504214333 | 81 | 254 | 18.2 | 27.8 | 0.00 | 0.00 | 0.00 | 47 | 1000.6 |
| 20260504214116 | 81 | 239 | 19.1 | 27.8 | 0.00 | 0.00 | 0.00 | 47 | 1000.7 |
| 20260504213916 | 81 | 242 | 20.0 | 27.8 | 0.00 | 0.00 | 0.00 | 47 | 1000.9 |
| 20260504213716 | 81 | 263 | 20.0 | 27.8 | 0.00 | 0.00 | 0.00 | 47 | 1000.8 |
| 20260504213519 | 81 | 242 | 21.7 | 27.8 | 0.00 | 0.00 | 0.00 | 47 | 1000.9 |
| 20260504213320 | 81 | 247 | 20.0 | 26.1 | 0.00 | 0.00 | 0.00 | 47 | 1001.0 |
| 20260504213102 | 82 | 242 | 19.1 | 25.2 | 0.00 | 0.00 | 0.00 | 47 | 1000.9 |
| 20260504212901 | 82 | 247 | 19.1 | 25.2 | 0.00 | 0.00 | 0.00 | 47 | 1000.8 |
| 20260504212701 | 82 | 253 | 19.1 | 26.9 | 0.00 | 0.00 | 0.00 | 47 | 1000.8 |
| 20260504212504 | 82 | 253 | 18.2 | 26.9 | 0.00 | 0.00 | 0.00 | 47 | 1000.7 |
| 20260504212304 | 82 | 263 | 16.5 | 26.9 | 0.00 | 0.00 | 0.00 | 47 | 1000.7 |
| 20260504212101 | 82 | 262 | 16.5 | 26.9 | 0.00 | 0.00 | 0.00 | 46 | 1000.7 |
| 20260504211905 | 82 | 268 | 16.5 | 25.2 | 0.00 | 0.00 | 0.00 | 46 | 1000.6 |
| 20260504211705 | 82 | 247 | 16.5 | 25.2 | 0.00 | 0.00 | 0.00 | 47 | 1000.7 |
| 20260504211519 | 82 | 240 | 17.4 | 26.1 | 0.00 | 0.00 | 0.00 | 48 | 1000.8 |
| 20260504211144 | 81 | 271 | 18.2 | 26.1 | 0.00 | 0.00 | 0.00 | 48 | 1000.7 |
| 20260504210946 | 82 | 244 | 19.1 | 26.1 | 0.00 | 0.00 | 0.00 | 47 | 1000.8 |
| 20260504210746 | 82 | 254 | 20.0 | 25.2 | 0.00 | 0.00 | 0.00 | 49 | 1000.7 |
| 20260504210525 | 81 | 254 | 18.2 | 25.2 | 0.00 | 0.00 | 0.00 | 49 | 1000.7 |
| 20260504210329 | 81 | 261 | 16.5 | 24.3 | 0.00 | 0.00 | 0.00 | 47 | 1000.9 |
| 20260504210129 | 81 | 265 | 15.6 | 23.5 | 0.00 | 0.00 | 0.00 | 48 | 1000.7 |
| 20260504205932 | 81 | 254 | 15.6 | 23.5 | 0.00 | 0.00 | 0.00 | 47 | 1000.8 |
| 20260504205733 | 81 | 256 | 16.5 | 23.5 | 0.00 | 0.00 | 0.00 | 47 | 1000.8 |
| 20260504205532 | 81 | 263 | 17.4 | 23.5 | 0.00 | 0.00 | 0.00 | 49 | 1000.9 |
| 20260504205336 | 81 | 262 | 17.4 | 23.5 | 0.00 | 0.00 | 0.00 | 48 | 1001.0 |
| 20260504205136 | 81 | 242 | 17.4 | 23.5 | 0.00 | 0.00 | 0.00 | 48 | 1000.8 |
| 20260504204940 | 81 | 263 | 17.4 | 27.8 | 0.00 | 0.00 | 0.00 | 47 | 1000.9 |
| 20260504204719 | 81 | 256 | 16.5 | 27.8 | 0.00 | 0.00 | 0.00 | 47 | 1000.9 |
| 20260504204520 | 81 | 267 | 19.1 | 27.8 | 0.00 | 0.00 | 0.00 | 47 | 1001.1 |
| 20260504204323 | 81 | 253 | 19.1 | 27.8 | 0.00 | 0.00 | 0.00 | 48 | 1001.0 |
| 20260504204123 | 81 | 257 | 19.1 | 28.7 | 0.00 | 0.00 | 0.00 | 47 | 1001.1 |
| 20260504203901 | 81 | 236 | 19.1 | 28.7 | 0.00 | 0.00 | 0.00 | 47 | 1001.1 |
| 20260504203704 | 81 | 249 | 19.1 | 28.7 | 0.00 | 0.00 | 0.00 | 47 | 1001.1 |
| 20260504203505 | 81 | 247 | 19.1 | 28.7 | 0.00 | 0.00 | 0.00 | 46 | 1001.3 |
| 20260504203309 | 81 | 244 | 18.2 | 26.1 | 0.00 | 0.00 | 0.00 | 47 | 1001.1 |
| 20260504203108 | 81 | 248 | 16.5 | 26.1 | 0.00 | 0.00 | 0.00 | 47 | 1001.1 |
| 20260504202847 | 82 | 247 | 15.6 | 23.5 | 0.00 | 0.00 | 0.00 | 48 | 1001.2 |
| 20260504202629 | 81 | 258 | 14.8 | 22.6 | 0.00 | 0.00 | 0.00 | 49 | 1001.2 |
| 20260504202429 | 81 | 254 | 16.5 | 22.6 | 0.00 | 0.00 | 0.00 | 48 | 1001.1 |
| 20260504202212 | 81 | 257 | 17.4 | 23.5 | 0.00 | 0.00 | 0.00 | 49 | 1001.2 |
| 20260504202012 | 81 | 276 | 18.2 | 23.5 | 0.00 | 0.00 | 0.00 | 49 | 1001.2 |
| 20260504201812 | 81 | 259 | 19.1 | 23.5 | 0.00 | 0.00 | 0.00 | 48 | 1001.2 |
| 20260504201625 | 81 | 257 | 19.1 | 23.5 | 0.00 | 0.00 | 0.00 | 48 | 1001.2 |
| 20260504201229 | 81 | 259 | 16.5 | 25.2 | 0.00 | 0.00 | 0.00 | 49 | 1001.2 |
| 20260504201012 | 80 | 265 | 18.2 | 26.1 | 0.00 | 0.00 | 0.00 | 47 | 1001.3 |
| 20260504200812 | 80 | 243 | 18.2 | 26.1 | 0.00 | 0.00 | 0.00 | 47 | 1001.3 |
| 20260504200614 | 80 | 262 | 19.1 | 26.1 | 0.00 | 0.00 | 0.00 | 48 | 1001.4 |
| 20260504200354 | 80 | 238 | 18.2 | 26.1 | 0.00 | 0.00 | 0.00 | 48 | 1001.5 |
| 20260504200154 | 80 | 250 | 18.2 | 25.2 | 0.00 | 0.00 | 0.00 | 49 | 1001.5 |
| 20260504195938 | 80 | 240 | 18.2 | 25.2 | 0.00 | 0.00 | 0.00 | 48 | 1001.4 |
| 20260504195716 | 80 | 246 | 19.1 | 26.9 | 0.00 | 0.00 | 0.00 | 47 | 1001.5 |
| 20260504195516 | 81 | 225 | 18.2 | 28.7 | 0.00 | 0.00 | 0.00 | 47 | 1001.6 |
| 20260504195320 | 80 | 261 | 20.0 | 28.7 | 0.00 | 0.00 | 0.00 | 47 | 1001.6 |
| 20260504195119 | 80 | 244 | 20.0 | 28.7 | 0.00 | 0.00 | 0.00 | 48 | 1001.5 |
| 20260504194922 | 80 | 236 | 20.9 | 29.5 | 0.00 | 0.00 | 0.00 | 47 | 1001.6 |
| 20260504194702 | 80 | 242 | 19.1 | 29.5 | 0.00 | 0.00 | 0.00 | 46 | 1001.6 |
| 20260504194501 | 80 | 240 | 20.0 | 29.5 | 0.00 | 0.00 | 0.00 | 47 | 1001.5 |
| 20260504194305 | 80 | 244 | 20.0 | 29.5 | 0.00 | 0.00 | 0.00 | 47 | 1001.5 |
| 20260504194104 | 80 | 240 | 20.0 | 29.5 | 0.00 | 0.00 | 0.00 | 46 | 1001.6 |
| 20260504193907 | 81 | 246 | 19.1 | 26.1 | 0.00 | 0.00 | 0.00 | 46 | 1001.5 |
| 20260504193707 | 81 | 255 | 18.2 | 26.1 | 0.00 | 0.00 | 0.00 | 47 | 1001.6 |
| 20260504193507 | 81 | 245 | 17.4 | 26.1 | 0.00 | 0.00 | 0.00 | 47 | 1001.5 |
| 20260504193311 | 81 | 260 | 16.5 | 26.1 | 0.00 | 0.00 | 0.00 | 46 | 1001.4 |
| 20260504193049 | 81 | 273 | 15.6 | 26.1 | 0.00 | 0.00 | 0.00 | 46 | 1001.4 |
| 20260504192849 | 81 | 261 | 15.6 | 25.2 | 0.00 | 0.00 | 0.00 | 48 | 1001.3 |
| 20260504192653 | 81 | 281 | 17.4 | 25.2 | 0.00 | 0.00 | 0.00 | 47 | 1001.4 |
| 20260504192454 | 81 | 269 | 19.1 | 24.3 | 0.00 | 0.00 | 0.00 | 45 | 1001.3 |
| 20260504192257 | 81 | 252 | 19.1 | 24.3 | 0.00 | 0.00 | 0.00 | 45 | 1001.3 |
| 20260504192037 | 82 | 271 | 19.1 | 24.3 | 0.00 | 0.00 | 0.00 | 45 | 1001.3 |
| 20260504191836 | 82 | 269 | 16.5 | 22.6 | 0.00 | 0.00 | 0.00 | 45 | 1001.4 |
| 20260504191627 | 82 | 261 | 15.6 | 21.7 | 0.00 | 0.00 | 0.00 | 46 | 1001.4 |
| 20260504191252 | 81 | 259 | 13.9 | 22.6 | 0.00 | 0.00 | 0.00 | 47 | 1001.5 |
| 20260504191034 | 80 | 247 | 14.8 | 22.6 | 0.00 | 0.00 | 0.00 | 47 | 1001.5 |
| 20260504190834 | 80 | 271 | 14.8 | 23.5 | 0.00 | 0.00 | 0.00 | 48 | 1001.6 |
| 20260504190637 | 80 | 261 | 16.5 | 23.5 | 0.00 | 0.00 | 0.00 | 48 | 1001.6 |
| 20260504190436 | 80 | 244 | 17.4 | 26.1 | 0.00 | 0.00 | 0.00 | 48 | 1001.6 |
| 20260504190236 | 80 | 247 | 18.2 | 26.1 | 0.00 | 0.00 | 0.00 | 47 | 1001.7 |
| 20260504190039 | 79 | 259 | 19.1 | 26.1 | 0.00 | 0.00 | 0.00 | 47 | 1001.7 |
| 20260504185839 | 79 | 246 | 20.0 | 26.1 | 0.00 | 0.00 | 0.00 | 47 | 1001.5 |
| 20260504185643 | 80 | 263 | 19.1 | 26.1 | 0.00 | 0.00 | 0.00 | 47 | 1001.6 |
| 20260504185442 | 80 | 263 | 19.1 | 26.1 | 0.00 | 0.00 | 0.00 | 46 | 1001.6 |
| 20260504185241 | 80 | 241 | 17.4 | 26.1 | 0.00 | 0.00 | 0.00 | 47 | 1001.8 |
| 20260504185044 | 80 | 248 | 19.1 | 27.8 | 0.00 | 0.00 | 0.00 | 46 | 1001.8 |
| 20260504184824 | 80 | 267 | 18.2 | 27.8 | 0.00 | 0.00 | 0.00 | 47 | 1001.7 |
| 20260504184623 | 79 | 281 | 20.0 | 27.8 | 0.00 | 0.00 | 0.00 | 47 | 1001.9 |
| 20260504184406 | 79 | 276 | 20.0 | 27.8 | 0.00 | 0.00 | 0.00 | 47 | 1001.9 |
| 20260504184205 | 79 | 255 | 20.9 | 26.9 | 0.00 | 0.00 | 0.00 | 45 | 1001.8 |
| 20260504184009 | 79 | 272 | 19.1 | 26.1 | 0.00 | 0.00 | 0.00 | 47 | 1001.7 |
| 20260504183808 | 80 | 259 | 19.1 | 26.1 | 0.00 | 0.00 | 0.00 | 46 | 1001.9 |
| 20260504183608 | 80 | 245 | 18.2 | 26.1 | 0.00 | 0.00 | 0.00 | 48 | 1002.2 |
| 20260504183412 | 79 | 246 | 19.1 | 26.9 | 0.00 | 0.00 | 0.00 | 47 | 1002.0 |
| 20260504183212 | 79 | 259 | 17.4 | 26.9 | 0.00 | 0.00 | 0.00 | 46 | 1002.0 |
| 20260504183017 | 79 | 241 | 16.5 | 24.3 | 0.00 | 0.00 | 0.00 | 47 | 1002.0 |
| 20260504182816 | 79 | 258 | 17.4 | 29.5 | 0.00 | 0.00 | 0.00 | 47 | 1001.9 |
| 20260504182617 | 79 | 250 | 18.2 | 29.5 | 0.00 | 0.00 | 0.00 | 47 | 1001.9 |
| 20260504182359 | 79 | 277 | 17.4 | 29.5 | 0.00 | 0.00 | 0.00 | 47 | 1001.9 |
| 20260504182159 | 79 | 291 | 16.5 | 29.5 | 0.00 | 0.00 | 0.00 | 47 | 1001.9 |
| 20260504181959 | 79 | 275 | 18.2 | 27.8 | 0.00 | 0.00 | 0.00 | 47 | 1002.1 |
| 20260504181802 | 79 | 261 | 19.1 | 27.8 | 0.00 | 0.00 | 0.00 | 47 | 1002.2 |
| 20260504181612 | 79 | 251 | 19.1 | 27.8 | 0.00 | 0.00 | 0.00 | 47 | 1002.2 |
| 20260504181237 | 78 | 259 | 17.4 | 27.8 | 0.00 | 0.00 | 0.00 | 49 | 1002.1 |
| 20260504181036 | 78 | 263 | 19.1 | 27.8 | 0.00 | 0.00 | 0.00 | 48 | 1002.0 |
| 20260504180840 | 77 | 251 | 20.9 | 27.8 | 0.00 | 0.00 | 0.00 | 48 | 1002.0 |
| 20260504180620 | 77 | 258 | 20.0 | 27.8 | 0.00 | 0.00 | 0.00 | 48 | 1001.9 |
| 20260504180419 | 78 | 254 | 15.6 | 22.6 | 0.00 | 0.00 | 0.00 | 47 | 1001.9 |
| 20260504180222 | 78 | 292 | 15.6 | 22.6 | 0.00 | 0.00 | 0.00 | 47 | 1001.9 |
| 20260504180022 | 78 | 270 | 14.8 | 22.6 | 0.00 | 0.00 | 0.00 | 49 | 1002.0 |
| 20260504175825 | 78 | 260 | 17.4 | 27.8 | 0.00 | 0.00 | 0.00 | 49 | 1002.1 |
| 20260504175623 | 78 | 244 | 17.4 | 27.8 | 0.00 | 0.00 | 0.00 | 49 | 1002.1 |
| 20260504175423 | 78 | 244 | 17.4 | 27.8 | 0.00 | 0.00 | 0.00 | 49 | 1002.2 |
| 20260504175227 | 78 | 244 | 17.4 | 27.8 | 0.00 | 0.00 | 0.00 | 49 | 1002.2 |
| 20260504175026 | 78 | 241 | 18.2 | 27.8 | 0.00 | 0.00 | 0.00 | 49 | 1002.3 |
| 20260504174830 | 78 | 244 | 18.2 | 27.8 | 0.00 | 0.00 | 0.00 | 49 | 1002.2 |
| 20260504174630 | 78 | 244 | 16.5 | 27.8 | 0.00 | 0.00 | 0.00 | 49 | 1002.3 |
| 20260504174430 | 77 | 258 | 14.8 | 21.7 | 0.00 | 0.00 | 0.00 | 49 | 1002.4 |
| 20260504174235 | 77 | 264 | 14.8 | 21.7 | 0.00 | 0.00 | 0.00 | 49 | 1002.2 |
| 20260504174034 | 77 | 264 | 14.8 | 21.7 | 0.00 | 0.00 | 0.00 | 49 | 1002.2 |
| 20260504173812 | 77 | 264 | 14.8 | 21.7 | 0.00 | 0.00 | 0.00 | 49 | 1002.3 |
| 20260504173615 | 77 | 242 | 15.6 | 22.6 | 0.00 | 0.00 | 0.00 | 50 | 1002.4 |
| 20260504173415 | 77 | 245 | 15.6 | 22.6 | 0.00 | 0.00 | 0.00 | 51 | 1002.3 |
| 20260504173219 | 77 | 246 | 14.8 | 22.6 | 0.00 | 0.00 | 0.00 | 48 | 1002.3 |
| 20260504173019 | 76 | 244 | 13.0 | 19.1 | 0.00 | 0.00 | 0.00 | 50 | 1002.4 |
| 20260504172818 | 76 | 259 | 12.2 | 19.1 | 0.00 | 0.00 | 0.00 | 51 | 1002.3 |
| 20260504172621 | 76 | 255 | 11.3 | 20.9 | 0.00 | 0.00 | 0.00 | 54 | 1002.5 |
| 20260504172421 | 76 | 254 | 12.2 | 20.9 | 0.00 | 0.00 | 0.00 | 52 | 1002.5 |
| 20260504172225 | 75 | 243 | 13.0 | 20.9 | 0.00 | 0.00 | 0.00 | 52 | 1002.5 |
| 20260504172023 | 75 | 246 | 13.9 | 20.9 | 0.00 | 0.00 | 0.00 | 52 | 1002.4 |
| 20260504171824 | 75 | 248 | 13.9 | 20.9 | 0.00 | 0.00 | 0.00 | 52 | 1002.5 |
| 20260504171615 | 75 | 253 | 13.9 | 18.2 | 0.00 | 0.00 | 0.00 | 52 | 1002.5 |
| 20260504171219 | 75 | 248 | 13.0 | 18.2 | 0.00 | 0.00 | 0.00 | 54 | 1002.5 |
| 20260504171023 | 75 | 268 | 13.9 | 18.2 | 0.00 | 0.00 | 0.00 | 53 | 1002.5 |
| 20260504170823 | 74 | 248 | 13.0 | 19.1 | 0.00 | 0.00 | 0.00 | 54 | 1002.6 |
| 20260504170625 | 74 | 252 | 13.9 | 19.1 | 0.00 | 0.00 | 0.00 | 53 | 1002.6 |
| 20260504170425 | 74 | 244 | 12.2 | 19.1 | 0.00 | 0.00 | 0.00 | 52 | 1002.5 |
| 20260504170225 | 74 | 260 | 12.2 | 19.1 | 0.00 | 0.00 | 0.00 | 53 | 1002.7 |
| 20260504160348 | 69 | 248 | 10.4 | 15.6 | 0.00 | 0.00 | 0.00 | 58 | 1003.2 |
| 20260504160152 | 69 | 245 | 9.6 | 15.6 | 0.00 | 0.00 | 0.00 | 59 | 1003.1 |
| 20260504151031 | 69 | 246 | 13.0 | 23.5 | 0.00 | 0.00 | 0.00 | 57 | 1003.1 |
| 20260504150834 | 69 | 257 | 14.8 | 23.5 | 0.00 | 0.00 | 0.00 | 55 | 1003.1 |
| 20260504150634 | 69 | 244 | 16.5 | 27.8 | 0.00 | 0.00 | 0.00 | 55 | 1003.1 |
| 20260504150434 | 70 | 252 | 16.5 | 27.8 | 0.00 | 0.00 | 0.00 | 55 | 1003.2 |
| 20260504150237 | 70 | 249 | 16.5 | 27.8 | 0.00 | 0.00 | 0.00 | 55 | 1003.3 |
| 20260504141248 | 68 | 240 | 11.3 | 17.4 | 0.00 | 0.00 | 0.00 | 60 | 1003.7 |
| 20260504141048 | 68 | 257 | 11.3 | 17.4 | 0.00 | 0.00 | 0.00 | 59 | 1003.8 |
| 20260504140852 | 67 | 248 | 11.3 | 17.4 | 0.00 | 0.00 | 0.00 | 60 | 1003.8 |
| 20260504140629 | 67 | 258 | 10.4 | 16.5 | 0.00 | 0.00 | 0.00 | 60 | 1003.9 |
| 20260504140435 | 66 | 218 | 11.3 | 17.4 | 0.00 | 0.00 | 0.00 | 60 | 1003.9 |
| 20260504140234 | 66 | 258 | 12.2 | 17.4 | 0.00 | 0.00 | 0.00 | 60 | 1003.9 |
| 20260504130658 | 64 | 239 | 11.3 | 15.6 | 0.00 | 0.00 | 0.00 | 63 | 1004.4 |
| 20260504130458 | 64 | 248 | 12.2 | 15.6 | 0.00 | 0.00 | 0.00 | 63 | 1004.4 |
| 20260504130258 | 63 | 243 | 11.3 | 13.9 | 0.00 | 0.00 | 0.00 | 64 | 1004.3 |
| 20260504120202 | 57 | 184 | 2.6 | 5.2 | 0.00 | 0.00 | 0.00 | 81 | 1004.8 |
| 20260504110528 | 56 | 163 | 3.5 | 5.2 | 0.00 | 0.00 | 0.00 | 79 | 1004.7 |
| 20260504110327 | 56 | 163 | 3.5 | 5.2 | 0.00 | 0.00 | 0.00 | 79 | 1004.7 |
| 20260504110126 | 56 | 163 | 4.3 | 5.2 | 0.00 | 0.00 | 0.00 | 80 | 1004.8 |
| 20260504100428 | 56 | 161 | 4.3 | 5.2 | 0.00 | 0.00 | 0.00 | 81 | 1005.3 |
| 20260504100228 | 56 | 161 | 4.3 | 5.2 | 0.00 | 0.00 | 0.00 | 80 | 1005.3 |
| 20260504081901 | 63 | 224 | 3.5 | 4.3 | 0.00 | 0.00 | 0.00 | 68 | 1005.8 |
| 20260504081701 | 63 | 226 | 3.5 | 4.3 | 0.00 | 0.00 | 0.00 | 68 | 1005.7 |
| 20260504081451 | 64 | 220 | 3.5 | 4.3 | 0.00 | 0.00 | 0.00 | 67 | 1005.8 |
| 20260504081116 | 64 | 229 | 3.5 | 4.3 | 0.00 | 0.00 | 0.00 | 67 | 1005.8 |
| 20260504080920 | 64 | 229 | 3.5 | 4.3 | 0.00 | 0.00 | 0.00 | 66 | 1005.8 |
| 20260504080719 | 64 | 226 | 3.5 | 4.3 | 0.00 | 0.00 | 0.00 | 67 | 1005.9 |
| 20260504080523 | 64 | 225 | 3.5 | 4.3 | 0.00 | 0.00 | 0.00 | 67 | 1005.9 |
| 20260504080323 | 64 | 237 | 2.6 | 4.3 | 0.00 | 0.00 | 0.00 | 67 | 1005.9 |
| 20260504080123 | 64 | 248 | 2.6 | 3.5 | 0.00 | 0.00 | 0.00 | 67 | 1005.9 |
| 20260504070402 | 63 | 284 | 2.6 | 5.2 | 0.00 | 0.00 | 0.00 | 68 | 1006.6 |
| 20260504070202 | 63 | 284 | 2.6 | 5.2 | 0.00 | 0.00 | 0.00 | 69 | 1006.7 |
| 20260504060209 | 64 | 271 | 3.5 | 7.0 | 0.00 | 0.00 | 0.00 | 64 | 1006.8 |
| 20260504050625 | 65 | 231 | 3.5 | 5.2 | 0.00 | 0.00 | 0.00 | 62 | 1006.4 |
| 20260504050428 | 65 | 229 | 3.5 | 5.2 | 0.00 | 0.00 | 0.00 | 63 | 1006.4 |
| 20260504050206 | 64 | 221 | 3.5 | 5.2 | 0.00 | 0.00 | 0.00 | 64 | 1006.4 |
| 20260504050006 | 64 | 270 | 3.5 | 5.2 | 0.00 | 0.00 | 0.00 | 64 | 1006.4 |
| 20260504045811 | 64 | 270 | 2.6 | 3.5 | 0.00 | 0.00 | 0.00 | 64 | 1006.4 |
| 20260504045610 | 64 | 270 | 2.6 | 5.2 | 0.00 | 0.00 | 0.00 | 65 | 1006.4 |
| 20260504045410 | 64 | 270 | 2.6 | 5.2 | 0.00 | 0.00 | 0.00 | 65 | 1006.4 |
| 20260504045215 | 64 | 270 | 2.6 | 5.2 | 0.00 | 0.00 | 0.00 | 65 | 1006.4 |
| 20260504045015 | 64 | 270 | 3.5 | 6.1 | 0.00 | 0.00 | 0.00 | 65 | 1006.5 |
| 20260504044758 | 64 | 270 | 3.5 | 6.1 | 0.00 | 0.00 | 0.00 | 65 | 1006.5 |
| 20260504044558 | 64 | 270 | 4.3 | 6.1 | 0.00 | 0.00 | 0.00 | 65 | 1006.5 |
| 20260504044358 | 64 | 270 | 3.5 | 6.1 | 0.00 | 0.00 | 0.00 | 65 | 1006.5 |
| 20260504044201 | 64 | 270 | 2.6 | 6.1 | 0.00 | 0.00 | 0.00 | 66 | 1006.5 |
| 20260504044001 | 64 | 270 | 0.9 | 3.5 | 0.00 | 0.00 | 0.00 | 67 | 1006.5 |
| 20260504043804 | 64 | 270 | 0.9 | 3.5 | 0.00 | 0.00 | 0.00 | 67 | 1006.5 |
| 20260504043605 | 64 | 270 | 0.9 | 3.5 | 0.00 | 0.00 | 0.00 | 68 | 1006.6 |
| 20260504043406 | 64 | 270 | 1.7 | 3.5 | 0.00 | 0.00 | 0.00 | 68 | 1006.6 |
| 20260504043208 | 64 | 270 | 1.7 | 3.5 | 0.00 | 0.00 | 0.00 | 67 | 1006.6 |
| 20260504043008 | 64 | 270 | 1.7 | 3.5 | 0.00 | 0.00 | 0.00 | 67 | 1006.6 |
| 20260504042808 | 63 | 270 | 1.7 | 2.6 | 0.00 | 0.00 | 0.00 | 68 | 1006.7 |
| 20260504042611 | 63 | 270 | 1.7 | 2.6 | 0.00 | 0.00 | 0.00 | 69 | 1006.7 |
| 20260504042412 | 63 | 270 | 1.7 | 2.6 | 0.00 | 0.00 | 0.00 | 69 | 1006.7 |
| 20260504042215 | 63 | 270 | 0.9 | 2.6 | 0.00 | 0.00 | 0.00 | 69 | 1006.7 |
| 20260504041954 | 63 | 270 | 0.9 | 2.6 | 0.00 | 0.00 | 0.00 | 69 | 1006.8 |
| 20260504041753 | 63 | 270 | 1.7 | 2.6 | 0.00 | 0.00 | 0.00 | 69 | 1006.8 |
| 20260504041604 | 64 | 270 | 1.7 | 2.6 | 0.00 | 0.00 | 0.00 | 68 | 1006.8 |
| 20260504041230 | 64 | 270 | 1.7 | 2.6 | 0.00 | 0.00 | 0.00 | 68 | 1006.9 |
| 20260504041013 | 64 | 270 | 1.7 | 2.6 | 0.00 | 0.00 | 0.00 | 68 | 1006.9 |
| 20260504040751 | 64 | 270 | 1.7 | 2.6 | 0.00 | 0.00 | 0.00 | 68 | 1007.0 |
| 20260504040555 | 65 | 270 | 1.7 | 2.6 | 0.00 | 0.00 | 0.00 | 68 | 1007.0 |
| 20260504040354 | 65 | 270 | 1.7 | 2.6 | 0.00 | 0.00 | 0.00 | 67 | 1007.0 |
| 20260504040153 | 65 | 270 | 1.7 | 2.6 | 0.00 | 0.00 | 0.00 | 67 | 1007.0 |
| 20260504035957 | 65 | 270 | 2.6 | 2.6 | 0.00 | 0.00 | 0.00 | 66 | 1007.0 |
| 20260504035756 | 65 | 270 | 1.7 | 2.6 | 0.00 | 0.00 | 0.00 | 65 | 1007.0 |
| 20260504035559 | 66 | 270 | 1.7 | 2.6 | 0.00 | 0.00 | 0.00 | 65 | 1007.1 |
| 20260504035358 | 66 | 270 | 0.9 | 2.6 | 0.00 | 0.00 | 0.00 | 65 | 1007.1 |
| 20260504035157 | 66 | 270 | 0.9 | 1.7 | 0.00 | 0.00 | 0.00 | 64 | 1007.2 |
| 20260504035000 | 66 | 270 | 0.9 | 1.7 | 0.00 | 0.00 | 0.00 | 64 | 1007.3 |
| 20260504034739 | 66 | 270 | 0.0 | 1.7 | 0.00 | 0.00 | 0.00 | 64 | 1007.2 |
| 20260504034518 | 66 | 270 | 0.0 | 2.6 | 0.00 | 0.00 | 0.00 | 63 | 1007.3 |
| 20260504034300 | 66 | 270 | 0.0 | 2.6 | 0.00 | 0.00 | 0.00 | 63 | 1007.3 |
| 20260504034100 | 66 | 270 | 0.9 | 2.6 | 0.00 | 0.00 | 0.00 | 63 | 1007.3 |
| 20260504033904 | 66 | 270 | 1.7 | 2.6 | 0.00 | 0.00 | 0.00 | 62 | 1007.3 |
| 20260504033643 | 66 | 270 | 1.7 | 2.6 | 0.00 | 0.00 | 0.00 | 63 | 1007.3 |
| 20260504033443 | 67 | 270 | 0.9 | 3.5 | 0.00 | 0.00 | 0.00 | 62 | 1007.3 |
| 20260504033246 | 67 | 270 | 0.9 | 3.5 | 0.00 | 0.00 | 0.00 | 62 | 1007.3 |
| 20260504033046 | 67 | 270 | 0.9 | 3.5 | 0.00 | 0.00 | 0.00 | 62 | 1007.3 |
| 20260504032849 | 67 | 270 | 1.7 | 5.2 | 0.00 | 0.00 | 0.00 | 62 | 1007.3 |
| 20260504032628 | 67 | 270 | 1.7 | 5.2 | 0.00 | 0.00 | 0.00 | 61 | 1007.3 |
| 20260504032427 | 67 | 270 | 2.6 | 5.2 | 0.00 | 0.00 | 0.00 | 61 | 1007.3 |
| 20260504032231 | 68 | 270 | 2.6 | 5.2 | 0.00 | 0.00 | 0.00 | 61 | 1007.3 |
| 20260504032031 | 68 | 270 | 2.6 | 7.0 | 0.00 | 0.00 | 0.00 | 60 | 1007.4 |
| 20260504031831 | 68 | 270 | 3.5 | 9.6 | 0.00 | 0.00 | 0.00 | 60 | 1007.4 |
| 20260504031643 | 68 | 270 | 4.3 | 9.6 | 0.00 | 0.00 | 0.00 | 59 | 1007.4 |
| 20260504031312 | 69 | 248 | 6.1 | 11.3 | 0.00 | 0.00 | 0.00 | 58 | 1007.5 |
| 20260504031051 | 69 | 248 | 7.0 | 11.3 | 0.00 | 0.00 | 0.00 | 58 | 1007.4 |
| 20260504030851 | 69 | 246 | 7.0 | 11.3 | 0.00 | 0.00 | 0.00 | 58 | 1007.4 |
| 20260504030655 | 69 | 267 | 7.0 | 11.3 | 0.00 | 0.00 | 0.00 | 58 | 1007.4 |
| 20260504030454 | 69 | 234 | 7.0 | 12.2 | 0.00 | 0.00 | 0.00 | 58 | 1007.4 |
| 20260504030254 | 69 | 249 | 7.8 | 13.0 | 0.00 | 0.00 | 0.00 | 58 | 1007.4 |
| 20260504030035 | 69 | 251 | 8.7 | 13.9 | 0.00 | 0.00 | 0.00 | 57 | 1007.4 |
| 20260504025835 | 69 | 252 | 8.7 | 13.9 | 0.00 | 0.00 | 0.00 | 57 | 1007.4 |
| 20260504025639 | 69 | 240 | 8.7 | 13.9 | 0.00 | 0.00 | 0.00 | 57 | 1007.3 |
| 20260504025439 | 69 | 246 | 9.6 | 13.9 | 0.00 | 0.00 | 0.00 | 57 | 1007.3 |
| 20260504025239 | 69 | 252 | 9.6 | 13.9 | 0.00 | 0.00 | 0.00 | 57 | 1007.3 |
| 20260504025042 | 70 | 246 | 10.4 | 13.9 | 0.00 | 0.00 | 0.00 | 57 | 1007.3 |
| 20260504024820 | 70 | 244 | 9.6 | 13.9 | 0.00 | 0.00 | 0.00 | 56 | 1007.3 |
| 20260504024603 | 70 | 234 | 9.6 | 13.9 | 0.00 | 0.00 | 0.00 | 57 | 1007.3 |
| 20260504024403 | 70 | 246 | 9.6 | 13.9 | 0.00 | 0.00 | 0.00 | 57 | 1007.1 |
| 20260504024202 | 70 | 257 | 8.7 | 13.9 | 0.00 | 0.00 | 0.00 | 57 | 1007.2 |
| 20260504024006 | 70 | 248 | 8.7 | 13.9 | 0.00 | 0.00 | 0.00 | 57 | 1007.1 |
| 20260504023805 | 70 | 238 | 9.6 | 13.9 | 0.00 | 0.00 | 0.00 | 56 | 1007.2 |
| 20260504023545 | 70 | 238 | 10.4 | 13.9 | 0.00 | 0.00 | 0.00 | 56 | 1007.1 |
| 20260504023348 | 70 | 242 | 9.6 | 12.2 | 0.00 | 0.00 | 0.00 | 56 | 1007.1 |
| 20260504023147 | 70 | 241 | 9.6 | 12.2 | 0.00 | 0.00 | 0.00 | 56 | 1007.1 |
| 20260504022950 | 70 | 246 | 9.6 | 12.2 | 0.00 | 0.00 | 0.00 | 56 | 1007.1 |
| 20260504022750 | 70 | 242 | 9.6 | 12.2 | 0.00 | 0.00 | 0.00 | 56 | 1007.1 |
| 20260504022550 | 70 | 248 | 8.7 | 13.9 | 0.00 | 0.00 | 0.00 | 56 | 1007.0 |
| 20260504022355 | 70 | 243 | 9.6 | 13.9 | 0.00 | 0.00 | 0.00 | 56 | 1007.0 |
| 20260504022154 | 70 | 236 | 8.7 | 13.9 | 0.00 | 0.00 | 0.00 | 55 | 1007.0 |
| 20260504021957 | 70 | 232 | 8.7 | 13.9 | 0.00 | 0.00 | 0.00 | 56 | 1007.0 |
| 20260504021757 | 70 | 240 | 7.8 | 13.9 | 0.00 | 0.00 | 0.00 | 56 | 1007.0 |
| 20260504021610 | 70 | 229 | 7.0 | 10.4 | 0.00 | 0.00 | 0.00 | 55 | 1007.0 |
| 20260504021235 | 70 | 237 | 7.0 | 9.6 | 0.00 | 0.00 | 0.00 | 55 | 1007.0 |
| 20260504021035 | 71 | 237 | 6.1 | 9.6 | 0.00 | 0.00 | 0.00 | 55 | 1007.0 |
| 20260504020818 | 71 | 240 | 6.1 | 9.6 | 0.00 | 0.00 | 0.00 | 54 | 1006.9 |
| 20260504020557 | 71 | 239 | 7.0 | 12.2 | 0.00 | 0.00 | 0.00 | 54 | 1006.9 |
| 20260504020401 | 71 | 227 | 7.0 | 12.2 | 0.00 | 0.00 | 0.00 | 54 | 1006.9 |
| 20260504020202 | 71 | 229 | 7.8 | 12.2 | 0.00 | 0.00 | 0.00 | 53 | 1006.9 |
| 20260504020002 | 71 | 229 | 7.8 | 12.2 | 0.00 | 0.00 | 0.00 | 53 | 1006.9 |
| 20260504015805 | 71 | 245 | 7.0 | 12.2 | 0.00 | 0.00 | 0.00 | 53 | 1006.9 |
| 20260504015604 | 71 | 232 | 7.8 | 12.2 | 0.00 | 0.00 | 0.00 | 53 | 1006.9 |
| 20260504015404 | 71 | 236 | 7.0 | 11.3 | 0.00 | 0.00 | 0.00 | 53 | 1006.9 |
| 20260504015208 | 71 | 234 | 7.8 | 11.3 | 0.00 | 0.00 | 0.00 | 53 | 1006.9 |
| 20260504015008 | 71 | 235 | 7.8 | 11.3 | 0.00 | 0.00 | 0.00 | 53 | 1006.9 |
| 20260504014750 | 72 | 241 | 7.8 | 11.3 | 0.00 | 0.00 | 0.00 | 53 | 1006.9 |
| 20260504014549 | 72 | 239 | 7.8 | 11.3 | 0.00 | 0.00 | 0.00 | 53 | 1006.9 |
| 20260504014348 | 72 | 240 | 7.8 | 11.3 | 0.00 | 0.00 | 0.00 | 52 | 1006.8 |
| 20260504014152 | 72 | 246 | 7.8 | 11.3 | 0.00 | 0.00 | 0.00 | 52 | 1006.8 |
| 20260504013951 | 72 | 238 | 7.8 | 12.2 | 0.00 | 0.00 | 0.00 | 53 | 1006.9 |
| 20260504013755 | 72 | 243 | 8.7 | 12.2 | 0.00 | 0.00 | 0.00 | 53 | 1006.9 |
| 20260504013555 | 72 | 242 | 8.7 | 12.2 | 0.00 | 0.00 | 0.00 | 52 | 1006.9 |
| 20260504013333 | 72 | 248 | 8.7 | 12.2 | 0.00 | 0.00 | 0.00 | 52 | 1006.8 |
| 20260504013137 | 72 | 239 | 7.8 | 12.2 | 0.00 | 0.00 | 0.00 | 52 | 1006.8 |
| 20260504012916 | 72 | 239 | 7.8 | 12.2 | 0.00 | 0.00 | 0.00 | 52 | 1006.8 |
| 20260504012716 | 72 | 236 | 7.8 | 12.2 | 0.00 | 0.00 | 0.00 | 52 | 1006.8 |
| 20260504012519 | 72 | 238 | 7.8 | 10.4 | 0.00 | 0.00 | 0.00 | 53 | 1006.9 |
| 20260504012319 | 72 | 247 | 7.8 | 9.6 | 0.00 | 0.00 | 0.00 | 53 | 1006.9 |
| 20260504012123 | 72 | 240 | 7.8 | 9.6 | 0.00 | 0.00 | 0.00 | 53 | 1006.9 |
| 20260504011923 | 72 | 238 | 7.8 | 9.6 | 0.00 | 0.00 | 0.00 | 53 | 1006.9 |
| 20260504011723 | 72 | 234 | 7.8 | 10.4 | 0.00 | 0.00 | 0.00 | 53 | 1006.9 |
| 20260504011535 | 72 | 241 | 7.0 | 10.4 | 0.00 | 0.00 | 0.00 | 52 | 1006.9 |
| 20260504011139 | 72 | 244 | 7.0 | 10.4 | 0.00 | 0.00 | 0.00 | 53 | 1006.8 |
| 20260504010920 | 72 | 242 | 7.0 | 10.4 | 0.00 | 0.00 | 0.00 | 52 | 1006.9 |
| 20260504010720 | 73 | 238 | 7.0 | 11.3 | 0.00 | 0.00 | 0.00 | 52 | 1006.9 |
| 20260504010504 | 73 | 249 | 7.0 | 11.3 | 0.00 | 0.00 | 0.00 | 52 | 1006.8 |
| 20260504010302 | 73 | 244 | 7.0 | 11.3 | 0.00 | 0.00 | 0.00 | 52 | 1006.8 |
| 20260504005906 | 73 | 242 | 7.0 | 10.4 | 0.00 | 0.00 | 0.00 | 51 | 1006.8 |
| 20260504005706 | 73 | 238 | 7.0 | 10.4 | 0.00 | 0.00 | 0.00 | 51 | 1006.7 |
| 20260504005509 | 74 | 252 | 7.0 | 10.4 | 0.00 | 0.00 | 0.00 | 51 | 1006.7 |
| 20260504005309 | 74 | 245 | 6.1 | 9.6 | 0.00 | 0.00 | 0.00 | 50 | 1006.8 |
| 20260504005048 | 74 | 240 | 6.1 | 10.4 | 0.00 | 0.00 | 0.00 | 50 | 1006.8 |
| 20260504004829 | 74 | 239 | 7.0 | 12.2 | 0.00 | 0.00 | 0.00 | 50 | 1006.8 |
| 20260504004629 | 75 | 237 | 7.8 | 12.2 | 0.00 | 0.00 | 0.00 | 49 | 1006.8 |
| 20260504004429 | 75 | 242 | 8.7 | 12.2 | 0.00 | 0.00 | 0.00 | 49 | 1006.8 |
| 20260504004211 | 75 | 245 | 7.8 | 12.2 | 0.00 | 0.00 | 0.00 | 48 | 1006.8 |
| 20260504003949 | 75 | 232 | 7.0 | 11.3 | 0.00 | 0.00 | 0.00 | 48 | 1006.8 |
| 20260504003731 | 75 | 242 | 7.0 | 10.4 | 0.00 | 0.00 | 0.00 | 48 | 1006.8 |
| 20260504003531 | 76 | 239 | 7.8 | 10.4 | 0.00 | 0.00 | 0.00 | 48 | 1006.8 |
| 20260504003332 | 76 | 246 | 7.8 | 10.4 | 0.00 | 0.00 | 0.00 | 47 | 1006.8 |
| 20260504003136 | 76 | 237 | 7.8 | 12.2 | 0.00 | 0.00 | 0.00 | 48 | 1006.9 |
| 20260504002936 | 76 | 248 | 7.8 | 12.2 | 0.00 | 0.00 | 0.00 | 47 | 1006.8 |
| 20260504002718 | 76 | 244 | 8.7 | 12.2 | 0.00 | 0.00 | 0.00 | 46 | 1006.9 |
| 20260504002518 | 76 | 243 | 8.7 | 12.2 | 0.00 | 0.00 | 0.00 | 46 | 1006.9 |
| 20260504002318 | 77 | 242 | 8.7 | 12.2 | 0.00 | 0.00 | 0.00 | 46 | 1006.8 |
| 20260504002120 | 77 | 224 | 7.8 | 12.2 | 0.00 | 0.00 | 0.00 | 46 | 1006.9 |
| 20260504001920 | 77 | 239 | 7.8 | 13.0 | 0.00 | 0.00 | 0.00 | 46 | 1006.9 |
| 20260504001719 | 77 | 244 | 8.7 | 13.0 | 0.00 | 0.00 | 0.00 | 47 | 1006.9 |
| 20260504001533 | 77 | 244 | 8.7 | 13.0 | 0.00 | 0.00 | 0.00 | 45 | 1007.0 |
| 20260504001202 | 77 | 252 | 9.6 | 13.0 | 0.00 | 0.00 | 0.00 | 45 | 1007.0 |
| 20260504001001 | 77 | 245 | 8.7 | 13.0 | 0.00 | 0.00 | 0.00 | 46 | 1006.9 |
| 20260504000802 | 77 | 247 | 7.8 | 12.2 | 0.00 | 0.00 | 0.00 | 45 | 1007.0 |
| 20260504000605 | 78 | 242 | 7.8 | 12.2 | 0.00 | 0.00 | 0.00 | 44 | 1007.0 |
| 20260504000404 | 78 | 252 | 7.0 | 11.3 | 0.00 | 0.00 | 0.00 | 45 | 1006.9 |
| 20260504000204 | 78 | 259 | 7.8 | 11.3 | 0.00 | 0.00 | 0.00 | 44 | 1006.9 |
| 20260504000008 | 78 | 246 | 7.8 | 10.4 | 0.00 | 0.00 | 0.00 | 44 | 1006.9 |
| 20260503235808 | 78 | 246 | 8.7 | 12.2 | 0.00 | 0.00 | 0.00 | 44 | 1007.0 |
| 20260503235612 | 78 | 240 | 7.8 | 12.2 | 0.00 | 0.00 | 0.00 | 44 | 1007.0 |
| 20260503235412 | 78 | 242 | 7.8 | 12.2 | 0.00 | 0.00 | 0.00 | 44 | 1007.0 |
| 20260503235211 | 78 | 235 | 7.8 | 12.2 | 0.00 | 0.00 | 0.00 | 43 | 1007.0 |
| 20260503235015 | 78 | 256 | 7.8 | 12.2 | 0.00 | 0.00 | 0.00 | 44 | 1007.1 |
| 20260503234814 | 79 | 241 | 7.8 | 11.3 | 0.00 | 0.00 | 0.00 | 43 | 1007.1 |
| 20260503234618 | 79 | 245 | 7.8 | 11.3 | 0.00 | 0.00 | 0.00 | 43 | 1007.1 |
| 20260503234418 | 79 | 258 | 7.8 | 13.0 | 0.00 | 0.00 | 0.00 | 42 | 1007.1 |
| 20260503234218 | 79 | 262 | 7.8 | 13.0 | 0.00 | 0.00 | 0.00 | 42 | 1007.2 |
| 20260503234022 | 79 | 259 | 9.6 | 13.0 | 0.00 | 0.00 | 0.00 | 43 | 1007.3 |
| 20260503233822 | 79 | 248 | 10.4 | 13.0 | 0.00 | 0.00 | 0.00 | 43 | 1007.2 |
| 20260503233600 | 79 | 252 | 10.4 | 13.0 | 0.00 | 0.00 | 0.00 | 42 | 1007.3 |
| 20260503233405 | 79 | 255 | 10.4 | 13.0 | 0.00 | 0.00 | 0.00 | 43 | 1007.3 |
| 20260503233204 | 79 | 243 | 10.4 | 13.0 | 0.00 | 0.00 | 0.00 | 42 | 1007.3 |
| 20260503233008 | 79 | 242 | 9.6 | 17.4 | 0.00 | 0.00 | 0.00 | 43 | 1007.3 |
| 20260503232808 | 79 | 246 | 10.4 | 20.9 | 0.00 | 0.00 | 0.00 | 43 | 1007.3 |
| 20260503232607 | 79 | 269 | 11.3 | 20.9 | 0.00 | 0.00 | 0.00 | 42 | 1007.3 |
| 20260503232411 | 79 | 268 | 12.2 | 20.9 | 0.00 | 0.00 | 0.00 | 41 | 1007.3 |
| 20260503232211 | 79 | 254 | 12.2 | 20.9 | 0.00 | 0.00 | 0.00 | 42 | 1007.4 |
| 20260503232016 | 79 | 275 | 13.0 | 20.0 | 0.00 | 0.00 | 0.00 | 42 | 1007.4 |
| 20260503231814 | 79 | 254 | 11.3 | 17.4 | 0.00 | 0.00 | 0.00 | 42 | 1007.4 |
| 20260503231625 | 79 | 265 | 12.2 | 18.2 | 0.00 | 0.00 | 0.00 | 41 | 1007.4 |
| 20260503231250 | 79 | 266 | 13.0 | 18.2 | 0.00 | 0.00 | 0.00 | 40 | 1007.3 |
| 20260503231029 | 79 | 261 | 13.9 | 18.2 | 0.00 | 0.00 | 0.00 | 41 | 1007.5 |
| 20260503230834 | 79 | 255 | 13.9 | 18.2 | 0.00 | 0.00 | 0.00 | 41 | 1007.4 |
| 20260503230634 | 79 | 270 | 12.2 | 16.5 | 0.00 | 0.00 | 0.00 | 41 | 1007.4 |
| 20260503230437 | 79 | 254 | 12.2 | 16.5 | 0.00 | 0.00 | 0.00 | 41 | 1007.5 |
| 20260503230237 | 79 | 254 | 10.4 | 15.6 | 0.00 | 0.00 | 0.00 | 40 | 1007.5 |
| 20260503230037 | 79 | 254 | 9.6 | 20.9 | 0.00 | 0.00 | 0.00 | 40 | 1007.5 |
| 20260503225841 | 79 | 244 | 9.6 | 20.9 | 0.00 | 0.00 | 0.00 | 41 | 1007.4 |
| 20260503225641 | 79 | 280 | 12.2 | 20.9 | 0.00 | 0.00 | 0.00 | 41 | 1007.4 |
| 20260503225420 | 79 | 269 | 13.0 | 20.9 | 0.00 | 0.00 | 0.00 | 41 | 1007.4 |
| 20260503225223 | 79 | 271 | 12.2 | 20.9 | 0.00 | 0.00 | 0.00 | 40 | 1007.5 |
| 20260503225023 | 79 | 261 | 11.3 | 15.6 | 0.00 | 0.00 | 0.00 | 40 | 1007.5 |
| 20260503224827 | 80 | 255 | 10.4 | 15.6 | 0.00 | 0.00 | 0.00 | 40 | 1007.5 |
| 20260503224627 | 80 | 261 | 10.4 | 16.5 | 0.00 | 0.00 | 0.00 | 40 | 1007.5 |
| 20260503224426 | 80 | 242 | 11.3 | 18.2 | 0.00 | 0.00 | 0.00 | 40 | 1007.5 |
| 20260503224230 | 80 | 255 | 12.2 | 18.2 | 0.00 | 0.00 | 0.00 | 40 | 1007.4 |
| 20260503224029 | 80 | 261 | 13.0 | 18.2 | 0.00 | 0.00 | 0.00 | 40 | 1007.5 |
| 20260503223833 | 80 | 274 | 13.0 | 18.2 | 0.00 | 0.00 | 0.00 | 41 | 1007.6 |
| 20260503223632 | 80 | 274 | 13.0 | 18.2 | 0.00 | 0.00 | 0.00 | 40 | 1007.5 |
| 20260503223432 | 80 | 267 | 11.3 | 17.4 | 0.00 | 0.00 | 0.00 | 41 | 1007.5 |
| 20260503223236 | 80 | 266 | 11.3 | 18.2 | 0.00 | 0.00 | 0.00 | 41 | 1007.5 |
| 20260503223014 | 80 | 287 | 11.3 | 18.2 | 0.00 | 0.00 | 0.00 | 41 | 1007.5 |
| 20260503222813 | 80 | 273 | 12.2 | 20.9 | 0.00 | 0.00 | 0.00 | 40 | 1007.6 |
| 20260503222556 | 80 | 266 | 11.3 | 20.9 | 0.00 | 0.00 | 0.00 | 40 | 1007.7 |
| 20260503222356 | 80 | 266 | 12.2 | 20.9 | 0.00 | 0.00 | 0.00 | 40 | 1007.7 |